| time (UTC) | temp F | wind direction | speed MPH | gust MPH | rain 1hr in | rain 24hr in | rain mn in | humidity % | barometer mb |
| 20260502170454 | 52 | 261 | 1.0 | 5.0 | 0.00 | 0.00 | 0.00 | 42 | 1018.3 |
| 20260502163937 | 52 | 45 | 6.0 | 6.0 | 0.00 | 0.00 | 0.00 | 41 | 1018.4 |
| 20260502163433 | 53 | 58 | 2.0 | 5.0 | 0.00 | 0.00 | 0.00 | 41 | 1018.4 |
| 20260502162931 | 51 | 153 | 2.0 | 7.0 | 0.00 | 0.00 | 0.00 | 44 | 1018.3 |
| 20260502162427 | 50 | 176 | 3.0 | 5.0 | 0.00 | 0.00 | 0.00 | 43 | 1018.6 |
| 20260502161924 | 51 | 75 | 2.0 | 6.0 | 0.00 | 0.00 | 0.00 | 42 | 1018.6 |
| 20260502161420 | 51 | 298 | 2.0 | 5.0 | 0.00 | 0.00 | 0.00 | 44 | 1018.7 |
| 20260502160919 | 51 | 335 | 1.0 | 6.0 | 0.00 | 0.00 | 0.00 | 41 | 1018.5 |
| 20260502160417 | 51 | 303 | 3.0 | 4.0 | 0.00 | 0.00 | 0.00 | 47 | 1018.6 |
| 20260502151855 | 50 | 280 | 0.0 | 5.0 | 0.00 | 0.00 | 0.00 | 45 | 1018.7 |
| 20260502151351 | 50 | 31 | 0.0 | 4.0 | 0.00 | 0.00 | 0.00 | 46 | 1018.7 |
| 20260502150849 | 49 | 325 | 2.0 | 4.0 | 0.00 | 0.00 | 0.00 | 46 | 1018.9 |
| 20260502150345 | 49 | 248 | 1.0 | 3.0 | 0.00 | 0.00 | 0.00 | 47 | 1018.9 |
| 20260502130733 | 41 | 27 | 0.0 | 2.0 | 0.00 | 0.00 | 0.00 | 81 | 1019.0 |
| 20260502130231 | 41 | 88 | 1.0 | 3.0 | 0.00 | 0.00 | 0.00 | 85 | 1019.1 |
| 20260502123717 | 42 | 79 | 2.0 | 2.0 | 0.00 | 0.00 | 0.00 | 98 | 1018.9 |
| 20260502123213 | 40 | 67 | 2.0 | 2.0 | 0.00 | 0.00 | 0.00 | 98 | 1019.0 |
| 20260502122710 | 40 | 80 | 2.0 | 2.0 | 0.00 | 0.00 | 0.00 | 99 | 1018.8 |
| 20260502122206 | 36 | 64 | 2.0 | 2.0 | 0.00 | 0.00 | 0.00 | 99 | 1018.8 |
| 20260502121705 | 34 | 89 | 1.0 | 2.0 | 0.00 | 0.00 | 0.00 | 98 | 1018.7 |
| 20260502121203 | 33 | 86 | 2.0 | 2.0 | 0.00 | 0.00 | 0.00 | 98 | 1019.0 |
| 20260502120659 | 33 | 83 | 1.0 | 2.0 | 0.00 | 0.00 | 0.00 | 98 | 1018.9 |
| 20260502120155 | 33 | 87 | 2.0 | 2.0 | 0.00 | 0.00 | 0.00 | 99 | 1018.6 |
| 20260502115653 | 30 | 80 | 1.0 | 2.0 | 0.00 | 0.00 | 0.00 | 99 | 1018.5 |
| 20260502115149 | 29 | 63 | 2.0 | 2.0 | 0.00 | 0.00 | 0.00 | 99 | 1018.7 |
| 20260502114645 | 28 | 98 | 0.0 | 2.0 | 0.00 | 0.00 | 0.00 | 99 | 1018.6 |
| 20260502114143 | 28 | 60 | 1.0 | 2.0 | 0.00 | 0.00 | 0.00 | 99 | 1018.4 |
| 20260502113640 | 28 | 77 | 2.0 | 2.0 | 0.00 | 0.00 | 0.00 | 99 | 1018.6 |
| 20260502113138 | 27 | 44 | 1.0 | 2.0 | 0.00 | 0.00 | 0.00 | 99 | 1018.5 |
| 20260502112636 | 27 | 81 | 1.0 | 3.0 | 0.00 | 0.00 | 0.00 | 99 | 1018.3 |
| 20260502112133 | 27 | 88 | 1.0 | 2.0 | 0.00 | 0.00 | 0.00 | 99 | 1018.3 |
| 20260502111631 | 27 | 58 | 2.0 | 2.0 | 0.00 | 0.00 | 0.00 | 99 | 1018.3 |
| 20260502111128 | 27 | 92 | 1.0 | 2.0 | 0.00 | 0.00 | 0.00 | 99 | 1018.2 |
| 20260502110626 | 27 | 82 | 1.0 | 2.0 | 0.00 | 0.00 | 0.00 | 99 | 1018.2 |
| 20260502110123 | 27 | 67 | 1.0 | 2.0 | 0.00 | 0.00 | 0.00 | 99 | 1018.2 |
| 20260502105620 | 27 | 64 | 3.0 | 3.0 | 0.00 | 0.00 | 0.00 | 99 | 1018.2 |
| 20260502105117 | 26 | 73 | 2.0 | 2.0 | 0.00 | 0.00 | 0.00 | 99 | 1018.2 |
| 20260502104614 | 27 | 72 | 2.0 | 2.0 | 0.00 | 0.00 | 0.00 | 99 | 1018.5 |
| 20260502104112 | 27 | 96 | 2.0 | 2.0 | 0.00 | 0.00 | 0.00 | 99 | 1018.2 |
| 20260502103609 | 27 | 56 | 2.0 | 2.0 | 0.00 | 0.00 | 0.00 | 99 | 1018.1 |
| 20260502103108 | 27 | 62 | 2.0 | 2.0 | 0.00 | 0.00 | 0.00 | 99 | 1018.0 |
| 20260502102603 | 27 | 73 | 2.0 | 2.0 | 0.00 | 0.00 | 0.00 | 99 | 1018.2 |
| 20260502102100 | 27 | 77 | 2.0 | 2.0 | 0.00 | 0.00 | 0.00 | 99 | 1018.2 |
| 20260502101558 | 28 | 66 | 2.0 | 2.0 | 0.00 | 0.00 | 0.00 | 99 | 1018.0 |
| 20260502101057 | 28 | 48 | 2.0 | 2.0 | 0.00 | 0.00 | 0.00 | 99 | 1018.1 |
| 20260502100555 | 28 | 61 | 2.0 | 2.0 | 0.00 | 0.00 | 0.00 | 99 | 1018.0 |
| 20260502091529 | 28 | 60 | 2.0 | 2.0 | 0.00 | 0.00 | 0.00 | 98 | 1018.1 |
| 20260502091026 | 28 | 58 | 2.0 | 2.0 | 0.00 | 0.00 | 0.00 | 98 | 1018.1 |
| 20260502090523 | 28 | 65 | 2.0 | 2.0 | 0.00 | 0.00 | 0.00 | 98 | 1018.3 |
| 20260502071418 | 29 | 72 | 2.0 | 2.0 | 0.00 | 0.00 | 0.00 | 98 | 1017.9 |
| 20260502070916 | 29 | 62 | 2.0 | 2.0 | 0.00 | 0.00 | 0.00 | 98 | 1018.1 |
| 20260502070414 | 29 | 52 | 2.0 | 2.0 | 0.00 | 0.00 | 0.00 | 98 | 1018.2 |
| 20260502065912 | 29 | 63 | 2.0 | 2.0 | 0.00 | 0.00 | 0.00 | 98 | 1018.1 |
| 20260502065410 | 29 | 75 | 1.0 | 2.0 | 0.00 | 0.00 | 0.00 | 97 | 1018.3 |
| 20260502064908 | 29 | 68 | 1.0 | 2.0 | 0.00 | 0.00 | 0.00 | 97 | 1018.4 |
| 20260502064406 | 29 | 81 | 1.0 | 2.0 | 0.00 | 0.00 | 0.00 | 98 | 1018.3 |
| 20260502063902 | 30 | 72 | 2.0 | 2.0 | 0.00 | 0.00 | 0.00 | 98 | 1018.5 |
| 20260502063400 | 30 | 55 | 1.0 | 2.0 | 0.00 | 0.00 | 0.00 | 98 | 1018.5 |
| 20260502062858 | 30 | 54 | 2.0 | 2.0 | 0.00 | 0.00 | 0.00 | 98 | 1018.4 |
| 20260502062355 | 30 | 53 | 1.0 | 2.0 | 0.00 | 0.00 | 0.00 | 98 | 1018.6 |
| 20260502061854 | 30 | 52 | 3.0 | 3.0 | 0.00 | 0.00 | 0.00 | 97 | 1018.4 |
| 20260502061351 | 30 | 77 | 2.0 | 2.0 | 0.00 | 0.00 | 0.00 | 97 | 1018.6 |
| 20260502060846 | 30 | 73 | 1.0 | 2.0 | 0.00 | 0.00 | 0.00 | 97 | 1018.5 |
| 20260502060342 | 30 | 88 | 2.0 | 2.0 | 0.00 | 0.00 | 0.00 | 97 | 1018.7 |
| 20260502055839 | 30 | 64 | 2.0 | 2.0 | 0.00 | 0.00 | 0.00 | 97 | 1018.6 |
| 20260502055337 | 30 | 68 | 2.0 | 2.0 | 0.00 | 0.00 | 0.00 | 97 | 1018.5 |
| 20260502054837 | 30 | 54 | 2.0 | 2.0 | 0.00 | 0.00 | 0.00 | 97 | 1018.6 |
| 20260502054334 | 30 | 69 | 2.0 | 2.0 | 0.00 | 0.00 | 0.00 | 97 | 1018.7 |
| 20260502053831 | 30 | 59 | 2.0 | 2.0 | 0.00 | 0.00 | 0.00 | 97 | 1018.7 |
| 20260502053328 | 30 | 62 | 2.0 | 2.0 | 0.00 | 0.00 | 0.00 | 97 | 1018.5 |
| 20260502052826 | 30 | 49 | 2.0 | 2.0 | 0.00 | 0.00 | 0.00 | 97 | 1018.6 |
| 20260502052324 | 30 | 58 | 2.0 | 2.0 | 0.00 | 0.00 | 0.00 | 97 | 1018.7 |
| 20260502051821 | 30 | 63 | 2.0 | 2.0 | 0.00 | 0.00 | 0.00 | 97 | 1018.6 |
| 20260502051320 | 30 | 67 | 2.0 | 2.0 | 0.00 | 0.00 | 0.00 | 97 | 1018.6 |
| 20260502050816 | 30 | 53 | 2.0 | 2.0 | 0.00 | 0.00 | 0.00 | 97 | 1018.8 |
| 20260502050312 | 30 | 54 | 2.0 | 2.0 | 0.00 | 0.00 | 0.00 | 97 | 1018.5 |
| 20260502045810 | 30 | 76 | 2.0 | 2.0 | 0.00 | 0.08 | 0.08 | 97 | 1018.7 |
| 20260502045306 | 30 | 77 | 1.0 | 2.0 | 0.00 | 0.08 | 0.08 | 97 | 1018.5 |
| 20260502044803 | 30 | 61 | 2.0 | 2.0 | 0.00 | 0.08 | 0.08 | 97 | 1018.7 |
| 20260502044259 | 30 | 57 | 2.0 | 2.0 | 0.00 | 0.08 | 0.08 | 97 | 1018.5 |
| 20260502043757 | 30 | 86 | 1.0 | 2.0 | 0.00 | 0.08 | 0.08 | 97 | 1018.4 |
| 20260502043254 | 30 | 75 | 1.0 | 2.0 | 0.00 | 0.08 | 0.08 | 97 | 1018.4 |
| 20260502042753 | 30 | 80 | 2.0 | 2.0 | 0.00 | 0.08 | 0.08 | 96 | 1018.4 |
| 20260502042251 | 30 | 84 | 2.0 | 2.0 | 0.00 | 0.08 | 0.08 | 96 | 1018.3 |
| 20260502041748 | 30 | 69 | 1.0 | 2.0 | 0.00 | 0.08 | 0.08 | 96 | 1018.4 |
| 20260502041246 | 30 | 71 | 2.0 | 2.0 | 0.00 | 0.08 | 0.08 | 96 | 1018.3 |
| 20260502040742 | 30 | 57 | 2.0 | 2.0 | 0.00 | 0.08 | 0.08 | 96 | 1018.3 |
| 20260502040239 | 30 | 70 | 1.0 | 2.0 | 0.00 | 0.08 | 0.08 | 96 | 1018.3 |
| 20260502035735 | 30 | 66 | 2.0 | 2.0 | 0.00 | 0.08 | 0.08 | 96 | 1018.4 |
| 20260502035232 | 30 | 63 | 2.0 | 2.0 | 0.00 | 0.08 | 0.08 | 96 | 1018.5 |
| 20260502034730 | 30 | 67 | 2.0 | 2.0 | 0.00 | 0.08 | 0.08 | 96 | 1018.4 |
| 20260502034228 | 31 | 67 | 2.0 | 2.0 | 0.00 | 0.08 | 0.08 | 96 | 1018.2 |
| 20260502033725 | 31 | 65 | 1.0 | 2.0 | 0.00 | 0.08 | 0.08 | 96 | 1018.4 |
| 20260502033223 | 31 | 64 | 1.0 | 2.0 | 0.00 | 0.08 | 0.08 | 96 | 1018.1 |
| 20260502032720 | 31 | 63 | 2.0 | 2.0 | 0.00 | 0.08 | 0.08 | 96 | 1018.2 |
| 20260502032215 | 32 | 70 | 2.0 | 2.0 | 0.00 | 0.08 | 0.08 | 96 | 1018.2 |
| 20260502031714 | 32 | 87 | 2.0 | 2.0 | 0.00 | 0.08 | 0.08 | 96 | 1018.1 |
| 20260502031211 | 32 | 71 | 1.0 | 1.0 | 0.00 | 0.08 | 0.08 | 95 | 1018.1 |
| 20260502030710 | 32 | 54 | 1.0 | 2.0 | 0.00 | 0.08 | 0.08 | 95 | 1018.2 |
| 20260502030208 | 32 | 74 | 2.0 | 2.0 | 0.00 | 0.08 | 0.08 | 95 | 1018.2 |
| 20260502025704 | 32 | 49 | 2.0 | 2.0 | 0.00 | 0.08 | 0.08 | 95 | 1018.4 |
| 20260502025202 | 32 | 56 | 2.0 | 2.0 | 0.00 | 0.08 | 0.08 | 95 | 1018.1 |
| 20260502024700 | 32 | 65 | 2.0 | 2.0 | 0.00 | 0.08 | 0.08 | 95 | 1018.4 |
| 20260502024158 | 32 | 71 | 2.0 | 2.0 | 0.00 | 0.08 | 0.08 | 95 | 1018.1 |
| 20260502023655 | 32 | 63 | 2.0 | 2.0 | 0.00 | 0.08 | 0.08 | 94 | 1018.0 |
| 20260502023152 | 32 | 73 | 2.0 | 2.0 | 0.00 | 0.08 | 0.08 | 94 | 1018.0 |
| 20260502022649 | 33 | 63 | 2.0 | 2.0 | 0.00 | 0.08 | 0.08 | 94 | 1017.9 |
| 20260502022146 | 33 | 67 | 2.0 | 2.0 | 0.00 | 0.08 | 0.08 | 94 | 1018.0 |
| 20260502021644 | 33 | 62 | 2.0 | 2.0 | 0.00 | 0.08 | 0.08 | 94 | 1018.0 |
| 20260502021141 | 33 | 68 | 2.0 | 2.0 | 0.00 | 0.08 | 0.08 | 94 | 1017.9 |
| 20260502020638 | 33 | 65 | 2.0 | 2.0 | 0.00 | 0.08 | 0.08 | 94 | 1017.8 |
| 20260502020135 | 33 | 70 | 2.0 | 2.0 | 0.00 | 0.08 | 0.08 | 94 | 1017.7 |
| 20260502015633 | 34 | 80 | 2.0 | 2.0 | 0.00 | 0.08 | 0.08 | 94 | 1017.6 |
| 20260502015129 | 34 | 62 | 2.0 | 2.0 | 0.00 | 0.08 | 0.08 | 93 | 1017.7 |
| 20260502014626 | 34 | 58 | 2.0 | 2.0 | 0.00 | 0.08 | 0.08 | 93 | 1017.6 |
| 20260502014123 | 34 | 49 | 2.0 | 2.0 | 0.00 | 0.08 | 0.08 | 93 | 1017.6 |
| 20260502013619 | 35 | 49 | 2.0 | 3.0 | 0.00 | 0.08 | 0.08 | 93 | 1017.6 |
| 20260502013115 | 35 | 72 | 2.0 | 2.0 | 0.00 | 0.08 | 0.08 | 92 | 1017.6 |
| 20260502012613 | 35 | 74 | 1.0 | 2.0 | 0.00 | 0.08 | 0.08 | 92 | 1017.8 |
| 20260502012111 | 35 | 61 | 2.0 | 3.0 | 0.00 | 0.08 | 0.08 | 92 | 1017.6 |
| 20260502011607 | 35 | 62 | 2.0 | 2.0 | 0.00 | 0.08 | 0.08 | 91 | 1017.5 |
| 20260502011103 | 35 | 87 | 1.0 | 2.0 | 0.00 | 0.08 | 0.08 | 91 | 1017.5 |
| 20260502010600 | 36 | 79 | 2.0 | 2.0 | 0.00 | 0.08 | 0.08 | 90 | 1017.6 |
| 20260502010056 | 36 | 60 | 2.0 | 2.0 | 0.00 | 0.08 | 0.08 | 90 | 1017.6 |
| 20260502005555 | 37 | 74 | 1.0 | 2.0 | 0.00 | 0.08 | 0.08 | 90 | 1017.0 |
| 20260502005052 | 37 | 77 | 1.0 | 3.0 | 0.00 | 0.08 | 0.08 | 90 | 1017.2 |
| 20260502004547 | 37 | 59 | 2.0 | 3.0 | 0.00 | 0.08 | 0.08 | 90 | 1017.3 |
| 20260502004044 | 37 | 82 | 2.0 | 3.0 | 0.00 | 0.08 | 0.08 | 91 | 1017.3 |
| 20260502003543 | 37 | 45 | 2.0 | 2.0 | 0.00 | 0.08 | 0.08 | 91 | 1017.0 |
| 20260502003039 | 37 | 44 | 3.0 | 3.0 | 0.00 | 0.08 | 0.08 | 90 | 1017.3 |
| 20260502002536 | 37 | 73 | 3.0 | 3.0 | 0.00 | 0.08 | 0.08 | 90 | 1017.3 |
| 20260502002033 | 37 | 89 | 1.0 | 3.0 | 0.00 | 0.08 | 0.08 | 90 | 1017.2 |
| 20260502001531 | 37 | 74 | 1.0 | 2.0 | 0.00 | 0.08 | 0.08 | 89 | 1017.2 |
| 20260502001027 | 37 | 44 | 1.0 | 2.0 | 0.00 | 0.08 | 0.08 | 88 | 1017.4 |
| 20260502000526 | 37 | 32 | 3.0 | 5.0 | 0.02 | 0.08 | 0.08 | 87 | 1017.3 |
| 20260502000023 | 37 | 60 | 1.0 | 2.0 | 0.07 | 0.07 | 0.07 | 85 | 1017.2 |
| 20260501235518 | 38 | 103 | 5.0 | 5.0 | 0.09 | 0.07 | 0.07 | 85 | 1017.3 |
| 20260501235014 | 38 | 119 | 2.0 | 4.0 | 0.05 | 0.06 | 0.06 | 83 | 1017.1 |
| 20260501234510 | 39 | 15 | 2.0 | 6.0 | 0.00 | 0.06 | 0.06 | 80 | 1017.2 |
| 20260501234009 | 39 | 21 | 3.0 | 6.0 | 0.00 | 0.06 | 0.06 | 78 | 1017.2 |
| 20260501233506 | 40 | 18 | 3.0 | 4.0 | 0.00 | 0.06 | 0.06 | 76 | 1017.2 |
| 20260501233002 | 40 | 356 | 2.0 | 3.0 | 0.00 | 0.06 | 0.06 | 75 | 1017.1 |
| 20260501232459 | 40 | 35 | 2.0 | 4.0 | 0.00 | 0.06 | 0.06 | 74 | 1016.8 |
| 20260501231956 | 41 | 23 | 2.0 | 7.0 | 0.00 | 0.06 | 0.06 | 71 | 1016.6 |
| 20260501231454 | 42 | 29 | 5.0 | 7.0 | 0.00 | 0.06 | 0.06 | 71 | 1016.7 |
| 20260501230952 | 42 | 66 | 0.0 | 4.0 | 0.00 | 0.06 | 0.06 | 72 | 1016.7 |
| 20260501230451 | 43 | 69 | 6.0 | 6.0 | 0.00 | 0.06 | 0.06 | 70 | 1016.8 |
| 20260501225948 | 43 | 95 | 3.0 | 6.0 | 0.00 | 0.06 | 0.06 | 69 | 1016.8 |
| 20260501225446 | 43 | 19 | 2.0 | 5.0 | 0.00 | 0.06 | 0.06 | 69 | 1016.8 |
| 20260501224941 | 44 | 79 | 3.0 | 4.0 | 0.00 | 0.06 | 0.06 | 69 | 1016.9 |
| 20260501224439 | 44 | 54 | 1.0 | 2.0 | 0.00 | 0.06 | 0.06 | 71 | 1016.6 |
| 20260501223936 | 44 | 58 | 3.0 | 4.0 | 0.00 | 0.06 | 0.06 | 71 | 1016.5 |
| 20260501223432 | 44 | 233 | 1.0 | 4.0 | 0.00 | 0.06 | 0.06 | 71 | 1016.5 |
| 20260501222927 | 44 | 60 | 2.0 | 3.0 | 0.00 | 0.06 | 0.06 | 69 | 1016.5 |
| 20260501222425 | 44 | 108 | 1.0 | 3.0 | 0.00 | 0.06 | 0.06 | 72 | 1016.6 |
| 20260501221921 | 44 | 106 | 2.0 | 6.0 | 0.00 | 0.06 | 0.06 | 69 | 1016.7 |
| 20260501221419 | 44 | 52 | 2.0 | 3.0 | 0.00 | 0.06 | 0.06 | 71 | 1016.8 |
| 20260501220916 | 44 | 44 | 0.0 | 4.0 | 0.00 | 0.06 | 0.06 | 72 | 1016.8 |
| 20260501220414 | 44 | 42 | 4.0 | 5.0 | 0.00 | 0.06 | 0.06 | 69 | 1016.9 |
| 20260501215910 | 44 | 37 | 5.0 | 5.0 | 0.00 | 0.06 | 0.06 | 70 | 1016.6 |
| 20260501215407 | 44 | 83 | 3.0 | 5.0 | 0.00 | 0.06 | 0.06 | 70 | 1016.8 |
| 20260501214902 | 44 | 95 | 3.0 | 5.0 | 0.00 | 0.06 | 0.06 | 69 | 1016.7 |
| 20260501214403 | 44 | 95 | 2.0 | 3.0 | 0.00 | 0.06 | 0.06 | 70 | 1016.7 |
| 20260501213858 | 44 | 38 | 2.0 | 4.0 | 0.00 | 0.06 | 0.06 | 71 | 1016.6 |
| 20260501213355 | 44 | 103 | 1.0 | 5.0 | 0.00 | 0.06 | 0.06 | 70 | 1016.5 |
| 20260501212851 | 45 | 93 | 2.0 | 3.0 | 0.00 | 0.06 | 0.06 | 73 | 1016.5 |
| 20260501212348 | 45 | 45 | 3.0 | 5.0 | 0.00 | 0.06 | 0.06 | 72 | 1016.4 |
| 20260501211845 | 45 | 80 | 1.0 | 3.0 | 0.00 | 0.06 | 0.06 | 72 | 1016.5 |
| 20260501211342 | 45 | 37 | 3.0 | 6.0 | 0.00 | 0.06 | 0.06 | 74 | 1016.4 |
| 20260501210840 | 44 | 18 | 2.0 | 6.0 | 0.00 | 0.06 | 0.06 | 72 | 1016.2 |
| 20260501210337 | 44 | 114 | 2.0 | 5.0 | 0.00 | 0.06 | 0.06 | 73 | 1016.4 |
| 20260501205833 | 44 | 29 | 3.0 | 5.0 | 0.00 | 0.06 | 0.06 | 73 | 1016.5 |
| 20260501205330 | 44 | 59 | 3.0 | 4.0 | 0.00 | 0.06 | 0.06 | 73 | 1016.6 |
| 20260501204826 | 44 | 38 | 4.0 | 5.0 | 0.00 | 0.06 | 0.06 | 72 | 1016.4 |
| 20260501204323 | 45 | 327 | 2.0 | 5.0 | 0.00 | 0.06 | 0.06 | 71 | 1016.5 |
| 20260501203819 | 45 | 66 | 1.0 | 5.0 | 0.00 | 0.06 | 0.06 | 72 | 1016.2 |
| 20260501203317 | 45 | 87 | 3.0 | 6.0 | 0.00 | 0.06 | 0.06 | 72 | 1016.2 |
| 20260501202814 | 45 | 18 | 2.0 | 6.0 | 0.00 | 0.06 | 0.06 | 70 | 1016.5 |
| 20260501202311 | 45 | 66 | 3.0 | 4.0 | 0.00 | 0.06 | 0.06 | 69 | 1016.4 |
| 20260501201808 | 45 | 89 | 4.0 | 4.0 | 0.00 | 0.06 | 0.06 | 68 | 1016.2 |
| 20260501201304 | 45 | 74 | 2.0 | 6.0 | 0.00 | 0.06 | 0.06 | 69 | 1016.4 |
| 20260501200801 | 45 | 53 | 2.0 | 5.0 | 0.00 | 0.06 | 0.06 | 70 | 1016.6 |
| 20260501200258 | 45 | 7 | 3.0 | 8.0 | 0.00 | 0.06 | 0.06 | 69 | 1016.6 |
| 20260501195755 | 46 | 88 | 4.0 | 7.0 | 0.00 | 0.06 | 0.06 | 69 | 1016.2 |
| 20260501195251 | 46 | 21 | 4.0 | 6.0 | 0.00 | 0.06 | 0.06 | 71 | 1016.5 |
| 20260501194747 | 45 | 81 | 4.0 | 6.0 | 0.00 | 0.06 | 0.06 | 70 | 1016.4 |
| 20260501194243 | 44 | 84 | 6.0 | 8.0 | 0.00 | 0.06 | 0.06 | 70 | 1016.2 |
| 20260501193740 | 44 | 110 | 4.0 | 7.0 | 0.00 | 0.06 | 0.06 | 69 | 1016.4 |
| 20260501193239 | 44 | 30 | 5.0 | 7.0 | 0.00 | 0.06 | 0.06 | 68 | 1016.5 |
| 20260501192736 | 45 | 73 | 3.0 | 9.0 | 0.00 | 0.06 | 0.06 | 67 | 1016.2 |
| 20260501192232 | 46 | 9 | 6.0 | 6.0 | 0.00 | 0.06 | 0.06 | 65 | 1015.9 |
| 20260501191730 | 46 | 80 | 3.0 | 5.0 | 0.00 | 0.06 | 0.06 | 65 | 1016.1 |
| 20260501191227 | 47 | 351 | 3.0 | 6.0 | 0.00 | 0.06 | 0.06 | 62 | 1016.0 |
| 20260501190723 | 48 | 49 | 5.0 | 7.0 | 0.00 | 0.06 | 0.06 | 50 | 1015.8 |
| 20260501190219 | 48 | 347 | 3.0 | 5.0 | 0.00 | 0.06 | 0.06 | 49 | 1015.8 |
| 20260501185715 | 48 | 353 | 2.0 | 9.0 | 0.00 | 0.06 | 0.06 | 47 | 1015.9 |
| 20260501185211 | 48 | 16 | 2.0 | 3.0 | 0.00 | 0.06 | 0.06 | 48 | 1015.8 |
| 20260501184707 | 49 | 274 | 0.0 | 4.0 | 0.00 | 0.06 | 0.06 | 45 | 1015.7 |
| 20260501184202 | 49 | 2 | 0.0 | 5.0 | 0.00 | 0.06 | 0.06 | 46 | 1015.5 |
| 20260501183659 | 50 | 289 | 4.0 | 7.0 | 0.00 | 0.06 | 0.06 | 46 | 1015.7 |
| 20260501183155 | 48 | 0 | 4.0 | 6.0 | 0.00 | 0.06 | 0.06 | 48 | 1015.7 |
| 20260501182652 | 47 | 23 | 2.0 | 9.0 | 0.00 | 0.06 | 0.06 | 52 | 1015.5 |
| 20260501182149 | 47 | 35 | 4.0 | 6.0 | 0.00 | 0.06 | 0.06 | 50 | 1015.5 |
| 20260501181646 | 47 | 354 | 4.0 | 9.0 | 0.00 | 0.06 | 0.06 | 50 | 1015.5 |
| 20260501181143 | 47 | 346 | 3.0 | 11.0 | 0.00 | 0.06 | 0.06 | 49 | 1015.8 |
| 20260501180641 | 48 | 353 | 5.0 | 8.0 | 0.00 | 0.06 | 0.06 | 49 | 1015.6 |
| 20260501180137 | 49 | 3 | 3.0 | 11.0 | 0.00 | 0.06 | 0.06 | 47 | 1015.4 |
| 20260501175634 | 50 | 8 | 5.0 | 7.0 | 0.00 | 0.06 | 0.06 | 46 | 1015.4 |
| 20260501175131 | 50 | 44 | 7.0 | 7.0 | 0.00 | 0.06 | 0.06 | 46 | 1015.7 |
| 20260501174627 | 50 | 335 | 3.0 | 11.0 | 0.00 | 0.06 | 0.06 | 44 | 1015.3 |
| 20260501174125 | 49 | 23 | 3.0 | 4.0 | 0.00 | 0.06 | 0.06 | 49 | 1015.5 |
| 20260501173622 | 47 | 342 | 3.0 | 9.0 | 0.00 | 0.06 | 0.06 | 48 | 1015.4 |
| 20260501173119 | 48 | 26 | 3.0 | 9.0 | 0.00 | 0.06 | 0.06 | 49 | 1015.6 |
| 20260501172615 | 48 | 331 | 2.0 | 5.0 | 0.00 | 0.06 | 0.06 | 48 | 1015.5 |
| 20260501172110 | 48 | 328 | 4.0 | 7.0 | 0.00 | 0.06 | 0.06 | 48 | 1015.3 |